Time,TemperatureF,DewpointF,PressureIn,WindDirection,WindDirectionDegrees,WindSpeedMPH,WindSpeedGustMPH,Humidity,HourlyPrecipIn,Conditions,Clouds,dailyrainin,SolarRadiationWatts/m^2,SoftwareType,DateUTC
2013-06-26 00:04:00,54.4,52.1,30.39,SW,233,0.0,0.0,92,0.00,CLR,,0.00,0.0,WeatherDisplay:10.37,2013-06-25 23:04:00,
2013-06-26 00:09:00,54.4,52.4,30.39,SW,233,0.0,0.0,93,0.00,CLR,,0.00,0.0,WeatherDisplay:10.37,2013-06-25 23:09:00,
2013-06-26 00:15:00,54.2,52.2,30.39,SW,233,0.0,2.0,93,0.00,CLR,,0.00,0.0,WeatherDisplay:10.37,2013-06-25 23:15:00,
2013-06-26 00:20:00,54.1,52.1,30.39,NNW,339,3.5,3.5,93,0.00,CLR,,0.00,0.0,WeatherDisplay:10.37,2013-06-25 23:20:00,
2013-06-26 00:26:00,53.9,51.9,30.39,NNW,340,3.5,3.5,93,0.00,CLR,,0.00,0.0,WeatherDisplay:10.37,2013-06-25 23:26:00,
2013-06-26 00:31:00,53.5,51.2,30.39,NNW,336,3.0,3.0,92,0.00,CLR,,0.00,0.0,WeatherDisplay:10.37,2013-06-25 23:31:00,
2013-06-26 00:36:00,53.3,51.0,30.39,NNW,336,3.5,3.5,92,0.00,CLR,,0.00,0.0,WeatherDisplay:10.37,2013-06-25 23:36:00,
2013-06-26 00:47:00,53.1,50.8,30.39,NW,326,2.3,2.3,92,0.00,CLR,,0.00,0.0,WeatherDisplay:10.37,2013-06-25 23:47:00,
2013-06-26 00:52:00,52.9,50.6,30.39,NW,315,0.0,0.0,92,0.00,CLR,,0.00,0.0,WeatherDisplay:10.37,2013-06-25 23:52:00,
2013-06-26 00:57:00,52.8,50.5,30.39,NW,309,2.3,2.3,92,0.00,CLR,,0.00,0.0,WeatherDisplay:10.37,2013-06-25 23:57:00,
2013-06-26 01:02:00,52.5,49.9,30.39,NW,318,0.0,0.0,91,0.00,CLR,,0.00,0.0,WeatherDisplay:10.37,2013-06-26 00:02:00,
2013-06-26 01:07:00,52.3,49.8,30.39,NW,313,1.2,0.0,91,0.00,CLR,,0.00,0.0,WeatherDisplay:10.37,2013-06-26 00:07:00,
2013-06-26 01:13:00,52.0,49.5,30.39,NW,323,2.0,2.0,91,0.00,CLR,,0.00,0.0,WeatherDisplay:10.37,2013-06-26 00:13:00,
2013-06-26 01:18:00,51.7,49.2,30.39,NNW,344,2.0,2.0,91,0.00,CLR,,0.00,0.0,WeatherDisplay:10.37,2013-06-26 00:18:00,
2013-06-26 01:23:00,51.6,49.1,30.39,NNW,339,0.0,0.0,91,0.00,CLR,,0.00,0.0,WeatherDisplay:10.37,2013-06-26 00:23:00,
2013-06-26 01:28:00,51.3,48.8,30.40,NNW,346,2.3,2.3,91,0.00,CLR,,0.00,0.0,WeatherDisplay:10.37,2013-06-26 00:28:00,
2013-06-26 01:33:00,51.1,48.6,30.40,NNW,339,0.0,0.0,91,0.00,CLR,,0.00,0.0,WeatherDisplay:10.37,2013-06-26 00:33:00,
2013-06-26 01:38:00,51.0,48.5,30.40,NNW,339,0.0,0.0,91,0.00,CLR,,0.00,0.0,WeatherDisplay:10.37,2013-06-26 00:38:00,
2013-06-26 01:43:00,50.8,48.6,30.40,NNW,342,0.0,0.0,92,0.00,CLR,,0.00,0.0,WeatherDisplay:10.37,2013-06-26 00:43:00,
2013-06-26 01:49:00,50.7,48.5,30.40,WSW,239,2.3,2.3,92,0.00,CLR,,0.00,0.0,WeatherDisplay:10.37,2013-06-26 00:49:00,
2013-06-26 01:54:00,50.8,48.6,30.40,WSW,239,2.3,2.3,92,0.00,CLR,,0.00,0.0,WeatherDisplay:10.37,2013-06-26 00:54:00,
2013-06-26 01:59:00,50.8,48.6,30.40,NW,313,0.0,0.0,92,0.00,CLR,,0.00,0.0,WeatherDisplay:10.37,2013-06-26 00:59:00,
2013-06-26 02:04:00,50.8,48.6,30.40,WSW,241,1.2,1.2,92,0.00,CLR,,0.00,0.0,WeatherDisplay:10.37,2013-06-26 01:04:00,
2013-06-26 02:09:00,50.8,48.6,30.40,WSW,239,0.0,0.0,92,0.00,CLR,,0.00,0.0,WeatherDisplay:10.37,2013-06-26 01:09:00,
2013-06-26 02:14:00,50.7,48.5,30.40,WSW,239,0.0,0.0,92,0.00,CLR,,0.00,0.0,WeatherDisplay:10.37,2013-06-26 01:14:00,
2013-06-26 02:19:00,50.4,48.2,30.40,NW,306,3.5,3.5,92,0.00,CLR,,0.00,0.0,WeatherDisplay:10.37,2013-06-26 01:19:00,
2013-06-26 02:24:00,50.2,48.0,30.40,NW,316,3.5,3.5,92,0.00,CLR,,0.00,0.0,WeatherDisplay:10.37,2013-06-26 01:24:00,
2013-06-26 02:29:00,50.1,47.9,30.40,North,0,3.5,3.5,92,0.00,CLR,,0.00,0.0,WeatherDisplay:10.37,2013-06-26 01:29:00,
2013-06-26 02:35:00,49.9,47.7,30.40,NW,308,3.5,3.5,92,0.00,CLR,,0.00,0.0,WeatherDisplay:10.37,2013-06-26 01:35:00,
2013-06-26 02:40:00,49.8,47.6,30.40,NNW,333,3.5,3.5,92,0.00,CLR,,0.00,0.0,WeatherDisplay:10.37,2013-06-26 01:40:00,
2013-06-26 02:45:00,49.6,47.4,30.41,NNW,329,0.0,5.0,92,0.00,CLR,,0.00,0.0,WeatherDisplay:10.37,2013-06-26 01:45:00,
2013-06-26 02:50:00,49.6,47.4,30.40,NW,319,3.5,3.5,92,0.00,CLR,,0.00,0.0,WeatherDisplay:10.37,2013-06-26 01:50:00,
2013-06-26 02:55:00,49.8,47.6,30.40,NW,325,2.3,2.3,92,0.00,CLR,,0.00,0.0,WeatherDisplay:10.37,2013-06-26 01:55:00,
2013-06-26 03:00:00,49.8,47.6,30.40,NW,323,1.0,1.0,92,0.00,CLR,,0.00,0.0,WeatherDisplay:10.37,2013-06-26 02:00:00,
2013-06-26 03:05:00,49.6,47.4,30.40,NW,309,3.5,3.5,92,0.00,CLR,,0.00,0.0,WeatherDisplay:10.37,2013-06-26 02:05:00,
2013-06-26 03:10:00,49.5,47.3,30.40,North,350,3.5,3.5,92,0.00,CLR,,0.00,0.0,WeatherDisplay:10.37,2013-06-26 02:10:00,
2013-06-26 03:15:00,49.4,47.2,30.40,NW,315,2.3,2.3,92,0.00,CLR,,0.00,0.0,WeatherDisplay:10.37,2013-06-26 02:15:00,
2013-06-26 03:21:00,49.2,47.0,30.40,NW,311,0.0,0.0,92,0.00,CLR,,0.00,0.0,WeatherDisplay:10.37,2013-06-26 02:21:00,
2013-06-26 03:26:00,49.1,46.9,30.41,NW,315,0.0,0.0,92,0.00,CLR,,0.00,0.0,WeatherDisplay:10.37,2013-06-26 02:26:00,
2013-06-26 03:31:00,48.9,46.7,30.41,NW,316,0.0,0.0,92,0.00,CLR,,0.00,0.0,WeatherDisplay:10.37,2013-06-26 02:31:00,
2013-06-26 03:36:00,48.6,46.7,30.41,NW,311,0.0,0.0,93,0.00,CLR,,0.00,0.0,WeatherDisplay:10.37,2013-06-26 02:36:00,
2013-06-26 03:41:00,48.6,46.7,30.41,NW,313,1.2,0.0,93,0.00,CLR,,0.00,0.0,WeatherDisplay:10.37,2013-06-26 02:41:00,
2013-06-26 03:47:00,48.6,46.7,30.41,NW,311,1.2,1.2,93,0.00,CLR,,0.00,0.0,WeatherDisplay:10.37,2013-06-26 02:47:00,
2013-06-26 03:52:00,48.8,46.9,30.40,NW,306,3.5,3.5,93,0.00,CLR,,0.00,0.0,WeatherDisplay:10.37,2013-06-26 02:52:00,
2013-06-26 03:57:00,49.1,47.4,30.40,NNW,343,8.1,8.1,94,0.00,CLR,,0.00,0.0,WeatherDisplay:10.37,2013-06-26 02:57:00,
2013-06-26 04:02:00,49.4,47.7,30.40,NNW,330,5.0,5.0,94,0.00,CLR,,0.00,0.0,WeatherDisplay:10.37,2013-06-26 03:02:00,
2013-06-26 04:07:00,49.5,47.8,30.40,NNW,343,3.5,3.5,94,0.00,OVC,,0.00,0.0,WeatherDisplay:10.37,2013-06-26 03:07:00,
2013-06-26 04:12:00,49.8,48.1,30.40,NNW,336,2.3,2.3,94,0.00,OVC,,0.00,0.0,WeatherDisplay:10.37,2013-06-26 03:12:00,
2013-06-26 04:17:00,49.9,48.0,30.41,WNW,299,2.0,0.0,93,0.00,OVC,,0.00,0.0,WeatherDisplay:10.37,2013-06-26 03:17:00,
2013-06-26 04:22:00,49.9,48.0,30.41,NW,316,1.2,0.0,93,0.00,OVC,,0.00,0.0,WeatherDisplay:10.37,2013-06-26 03:22:00,
2013-06-26 04:27:00,50.1,48.2,30.41,NW,322,2.3,2.3,93,0.00,OVC,,0.00,5.0,WeatherDisplay:10.37,2013-06-26 03:27:00,
2013-06-26 04:32:00,50.1,48.2,30.41,NW,326,3.5,3.5,93,0.00,OVC,,0.00,5.0,WeatherDisplay:10.37,2013-06-26 03:32:00,
2013-06-26 04:37:00,50.2,48.3,30.41,NW,325,2.3,2.3,93,0.00,OVC,,0.00,5.0,WeatherDisplay:10.37,2013-06-26 03:37:00,
2013-06-26 04:42:00,50.2,48.3,30.41,NNW,328,2.3,2.3,93,0.00,OVC,,0.00,7.0,WeatherDisplay:10.37,2013-06-26 03:42:00,
2013-06-26 04:47:00,50.2,48.3,30.41,NW,325,0.0,0.0,93,0.00,CLR,,0.00,9.0,WeatherDisplay:10.37,2013-06-26 03:47:00,
2013-06-26 04:52:00,50.2,48.3,30.41,NW,316,0.0,0.0,93,0.00,FEW,,0.00,11.0,WeatherDisplay:10.37,2013-06-26 03:52:00,
2013-06-26 04:57:00,50.2,48.3,30.41,WNW,284,2.3,2.3,93,0.00,SCT,,0.00,11.0,WeatherDisplay:10.37,2013-06-26 03:57:00,
2013-06-26 05:01:00,50.2,48.3,30.41,NW,325,3.5,3.5,93,0.00,BKN,,0.00,12.0,WeatherDisplay:10.37,2013-06-26 04:01:00,
2013-06-26 05:02:00,50.2,48.3,30.41,NW,320,3.5,0.0,93,0.00,BKN,,0.00,12.0,WeatherDisplay:10.37,2013-06-26 04:02:00,
2013-06-26 05:06:00,50.2,48.3,30.41,NW,322,2.3,2.3,93,0.00,BKN,,0.00,16.0,WeatherDisplay:10.37,2013-06-26 04:06:00,
2013-06-26 05:11:00,50.2,48.3,30.41,NNW,333,3.5,3.5,93,0.00,BKN,,0.00,19.0,WeatherDisplay:10.37,2013-06-26 04:11:00,
2013-06-26 05:16:00,50.1,48.2,30.41,NNW,337,2.3,2.3,93,0.00,BKN,,0.00,21.0,WeatherDisplay:10.37,2013-06-26 04:16:00,
2013-06-26 05:21:00,49.9,48.0,30.41,NNW,330,2.3,2.3,93,0.00,BKN,,0.00,23.0,WeatherDisplay:10.37,2013-06-26 04:21:00,
2013-06-26 05:26:00,49.8,47.9,30.41,NNW,329,2.3,2.3,93,0.00,BKN,,0.00,25.0,WeatherDisplay:10.37,2013-06-26 04:26:00,
2013-06-26 05:31:00,49.8,47.9,30.41,NNW,333,3.5,3.5,93,0.00,BKN,,0.00,26.0,WeatherDisplay:10.37,2013-06-26 04:31:00,
2013-06-26 05:36:00,49.8,48.1,30.41,NNW,342,5.8,5.8,94,0.00,OVC,,0.00,30.0,WeatherDisplay:10.37,2013-06-26 04:36:00,
2013-06-26 05:41:00,49.6,47.9,30.41,NNW,337,2.3,2.3,94,0.00,BKN,,0.00,32.0,WeatherDisplay:10.37,2013-06-26 04:41:00,
2013-06-26 05:46:00,49.6,47.9,30.41,NNW,342,4.6,4.6,94,0.00,OVC,,0.00,33.0,WeatherDisplay:10.37,2013-06-26 04:46:00,
2013-06-26 05:51:00,49.6,47.9,30.41,NW,316,2.3,2.3,94,0.00,OVC,,0.00,35.0,WeatherDisplay:10.37,2013-06-26 04:51:00,
2013-06-26 05:57:00,49.6,48.2,30.41,NW,325,2.3,2.3,95,0.00,OVC,,0.00,39.0,WeatherDisplay:10.37,2013-06-26 04:57:00,
2013-06-26 06:02:00,49.8,48.4,30.41,NNW,330,3.5,3.5,95,0.00,OVC,,0.00,40.0,WeatherDisplay:10.37,2013-06-26 05:02:00,
2013-06-26 06:07:00,49.8,48.4,30.41,NNW,333,1.2,0.0,95,0.00,OVC,,0.00,42.0,WeatherDisplay:10.37,2013-06-26 05:07:00,
2013-06-26 06:12:00,49.9,48.5,30.41,NNW,330,2.3,2.3,95,0.00,OVC,,0.00,48.0,WeatherDisplay:10.37,2013-06-26 05:12:00,
2013-06-26 06:17:00,50.1,48.7,30.42,NW,325,3.5,3.5,95,0.00,BKN,,0.00,55.0,WeatherDisplay:10.37,2013-06-26 05:17:00,
2013-06-26 06:22:00,50.2,48.8,30.42,NW,311,3.5,3.5,95,0.00,BKN,,0.00,83.0,WeatherDisplay:10.37,2013-06-26 05:22:00,
2013-06-26 06:28:00,50.4,49.0,30.42,NNW,343,5.0,5.0,95,0.00,FEW,,0.00,148.0,WeatherDisplay:10.37,2013-06-26 05:28:00,
2013-06-26 06:33:00,50.5,49.1,30.42,NW,319,4.6,4.6,95,0.00,FEW,,0.00,155.0,WeatherDisplay:10.37,2013-06-26 05:33:00,
2013-06-26 06:38:00,50.5,49.1,30.42,NW,312,5.8,5.8,95,0.00,FEW,,0.00,158.0,WeatherDisplay:10.37,2013-06-26 05:38:00,
2013-06-26 06:43:00,50.7,49.3,30.42,NNW,335,3.5,3.5,95,0.00,FEW,,0.00,165.0,WeatherDisplay:10.37,2013-06-26 05:43:00,
2013-06-26 06:48:00,50.8,49.4,30.42,NW,322,4.6,4.6,95,0.00,FEW,,0.00,174.0,WeatherDisplay:10.37,2013-06-26 05:48:00,
2013-06-26 06:53:00,51.1,49.7,30.42,NNW,343,2.3,2.3,95,0.00,FEW,,0.00,185.0,WeatherDisplay:10.37,2013-06-26 05:53:00,
2013-06-26 06:59:00,51.3,49.9,30.42,NW,320,3.5,3.5,95,0.00,FEW,,0.00,202.0,WeatherDisplay:10.37,2013-06-26 05:59:00,
2013-06-26 07:04:00,51.6,49.9,30.42,NNW,330,4.6,4.6,94,0.00,FEW,,0.00,215.0,WeatherDisplay:10.37,2013-06-26 06:04:00,
2013-06-26 07:09:00,51.9,50.2,30.42,NW,320,4.6,4.6,94,0.00,FEW,,0.00,222.0,WeatherDisplay:10.37,2013-06-26 06:09:00,
2013-06-26 07:14:00,52.0,50.0,30.42,NNW,328,8.1,8.1,93,0.00,FEW,,0.00,230.0,WeatherDisplay:10.37,2013-06-26 06:14:00,
2013-06-26 07:19:00,52.3,50.0,30.42,NNW,329,5.8,5.8,92,0.00,FEW,,0.00,241.0,WeatherDisplay:10.37,2013-06-26 06:19:00,
2013-06-26 07:25:00,52.5,50.2,30.42,NNW,333,5.8,5.8,92,0.00,FEW,,0.00,252.0,WeatherDisplay:10.37,2013-06-26 06:25:00,
2013-06-26 07:30:00,52.8,49.9,30.42,NW,323,11.5,11.5,90,0.00,FEW,,0.00,259.0,WeatherDisplay:10.37,2013-06-26 06:30:00,
2013-06-26 07:35:00,53.1,49.9,30.42,NW,326,11.5,11.5,89,0.00,FEW,,0.00,271.0,WeatherDisplay:10.37,2013-06-26 06:35:00,
2013-06-26 07:40:00,53.3,49.5,30.42,NW,313,8.1,8.1,87,0.00,FEW,,0.00,285.0,WeatherDisplay:10.37,2013-06-26 06:40:00,
2013-06-26 07:45:00,53.8,49.7,30.42,NNW,339,6.9,6.9,86,0.00,FEW,,0.00,294.0,WeatherDisplay:10.37,2013-06-26 06:45:00,
2013-06-26 07:50:00,54.1,49.7,30.42,NNW,339,6.0,6.0,85,0.00,FEW,,0.00,304.0,WeatherDisplay:10.37,2013-06-26 06:50:00,
2013-06-26 07:56:00,54.5,49.8,30.42,NNW,340,11.5,11.5,84,0.00,FEW,,0.00,322.0,WeatherDisplay:10.37,2013-06-26 06:56:00,
2013-06-26 08:01:00,54.8,49.7,30.42,NNW,347,8.1,8.1,83,0.00,FEW,,0.00,336.0,WeatherDisplay:10.37,2013-06-26 07:01:00,
2013-06-26 08:06:00,55.1,49.4,30.42,NNW,339,8.1,8.1,81,0.00,FEW,,0.00,354.0,WeatherDisplay:10.37,2013-06-26 07:06:00,
2013-06-26 08:11:00,55.4,49.0,30.42,NNW,340,8.1,8.1,79,0.00,FEW,,0.00,364.0,WeatherDisplay:10.37,2013-06-26 07:11:00,
2013-06-26 08:16:00,55.7,49.3,30.42,NNW,340,6.9,6.9,79,0.00,FEW,,0.00,380.0,WeatherDisplay:10.37,2013-06-26 07:16:00,
2013-06-26 08:21:00,55.9,48.8,30.42,NNW,346,11.5,11.5,77,0.00,CLR,,0.00,396.0,WeatherDisplay:10.37,2013-06-26 07:21:00,
2013-06-26 08:27:00,56.0,48.5,30.42,NNW,329,11.5,11.5,76,0.00,CLR,,0.00,419.0,WeatherDisplay:10.37,2013-06-26 07:27:00,
2013-06-26 08:32:00,56.5,49.0,30.42,North,350,5.8,5.8,76,0.00,CLR,,0.00,435.0,WeatherDisplay:10.37,2013-06-26 07:32:00,
2013-06-26 08:37:00,56.9,48.7,30.42,NNW,343,11.5,11.5,74,0.00,CLR,,0.00,442.0,WeatherDisplay:10.37,2013-06-26 07:37:00,
2013-06-26 08:42:00,57.0,48.8,30.42,NNW,330,10.4,10.4,74,0.00,FEW,,0.00,424.0,WeatherDisplay:10.37,2013-06-26 07:42:00,
2013-06-26 08:47:00,56.9,48.3,30.42,NNW,342,11.5,11.5,73,0.00,FEW,,0.00,436.0,WeatherDisplay:10.37,2013-06-26 07:47:00,
2013-06-26 08:52:00,57.3,48.7,30.42,North,353,5.8,5.8,73,0.00,FEW,,0.00,452.0,WeatherDisplay:10.37,2013-06-26 07:52:00,
2013-06-26 08:57:00,57.5,48.9,30.42,NNW,335,13.8,13.8,73,0.00,CLR,,0.00,486.0,WeatherDisplay:10.37,2013-06-26 07:57:00,
2013-06-26 09:03:00,56.9,48.3,30.42,NNW,335,10.4,10.4,73,0.00,FEW,,0.00,445.0,WeatherDisplay:10.37,2013-06-26 08:03:00,
2013-06-26 09:08:00,57.3,48.7,30.42,North,349,11.5,11.5,73,0.00,CLR,,0.00,519.0,WeatherDisplay:10.37,2013-06-26 08:08:00,
2013-06-26 09:13:00,57.6,48.3,30.42,North,352,10.4,10.4,71,0.00,FEW,,0.00,468.0,WeatherDisplay:10.37,2013-06-26 08:13:00,
2013-06-26 09:18:00,57.5,47.8,30.42,NNW,330,8.1,8.1,70,0.00,FEW,,0.00,487.0,WeatherDisplay:10.37,2013-06-26 08:18:00,
2013-06-26 09:23:00,57.5,48.2,30.42,North,352,6.9,6.9,71,0.00,CLR,,0.00,554.0,WeatherDisplay:10.37,2013-06-26 08:23:00,
2013-06-26 09:28:00,58.1,48.4,30.42,North,349,10.4,10.4,70,0.00,FEW,,0.00,556.0,WeatherDisplay:10.37,2013-06-26 08:28:00,
2013-06-26 09:33:00,58.4,48.7,30.42,NNW,342,10.4,10.4,70,0.00,CLR,,0.00,575.0,WeatherDisplay:10.37,2013-06-26 08:33:00,
2013-06-26 09:38:00,58.4,48.3,30.43,NNW,343,11.5,11.5,69,0.00,FEW,,0.00,582.0,WeatherDisplay:10.37,2013-06-26 08:38:00,
2013-06-26 09:44:00,58.6,48.1,30.43,NNW,346,5.8,5.8,68,0.00,FEW,,0.00,584.0,WeatherDisplay:10.37,2013-06-26 08:44:00,
2013-06-26 09:49:00,58.9,48.4,30.43,North,349,11.5,11.5,68,0.00,FEW,,0.00,600.0,WeatherDisplay:10.37,2013-06-26 08:49:00,
2013-06-26 09:54:00,59.0,47.2,30.43,North,349,5.8,5.8,65,0.00,FEW,,0.00,618.0,WeatherDisplay:10.37,2013-06-26 08:54:00,
2013-06-26 09:59:00,59.5,47.7,30.43,NNW,344,11.5,11.5,65,0.00,FEW,,0.00,632.0,WeatherDisplay:10.37,2013-06-26 08:59:00,
2013-06-26 10:04:00,59.3,46.3,30.43,NNW,336,10.4,10.4,62,0.00,CLR,,0.00,670.0,WeatherDisplay:10.37,2013-06-26 09:04:00,
2013-06-26 10:09:00,59.6,47.8,30.42,NNW,346,11.5,11.5,65,0.00,CLR,,0.00,720.0,WeatherDisplay:10.37,2013-06-26 09:09:00,
2013-06-26 10:14:00,59.9,48.1,30.42,North,356,7.0,7.0,65,0.00,FEW,,0.00,646.0,WeatherDisplay:10.37,2013-06-26 09:14:00,
2013-06-26 10:19:00,59.9,48.1,30.42,NNW,329,12.0,12.0,65,0.00,FEW,,0.00,266.0,WeatherDisplay:10.37,2013-06-26 09:19:00,
2013-06-26 10:25:00,59.5,47.3,30.43,NNW,346,8.1,8.1,64,0.00,FEW,,0.00,681.0,WeatherDisplay:10.37,2013-06-26 09:25:00,
2013-06-26 10:30:00,60.1,47.9,30.43,NNW,346,7.0,7.0,64,0.00,CLR,,0.00,714.0,WeatherDisplay:10.37,2013-06-26 09:30:00,
2013-06-26 10:35:00,60.1,47.0,30.43,NNW,328,5.0,5.0,62,0.00,CLR,,0.00,753.0,WeatherDisplay:10.37,2013-06-26 09:35:00,
2013-06-26 10:40:00,60.4,48.6,30.43,NNW,342,6.9,6.9,65,0.00,FEW,,0.00,728.0,WeatherDisplay:10.37,2013-06-26 09:40:00,
2013-06-26 10:45:00,61.0,48.3,30.43,North,349,6.9,6.9,63,0.00,CLR,,0.00,741.0,WeatherDisplay:10.37,2013-06-26 09:45:00,
2013-06-26 10:50:00,60.9,48.2,30.43,North,354,4.6,4.6,63,0.00,CLR,,0.00,816.0,WeatherDisplay:10.37,2013-06-26 09:50:00,
2013-06-26 10:56:00,60.1,47.9,30.43,NNW,342,8.0,8.0,64,0.00,CLR,,0.00,816.0,WeatherDisplay:10.37,2013-06-26 09:56:00,
2013-06-26 11:01:00,59.3,46.7,30.43,North,349,6.9,6.9,63,0.00,OVC,,0.00,276.0,WeatherDisplay:10.37,2013-06-26 10:01:00,
2013-06-26 11:06:00,59.2,47.8,30.43,North,353,6.9,6.9,66,0.00,BKN,,0.00,359.0,WeatherDisplay:10.37,2013-06-26 10:06:00,
2013-06-26 11:11:00,59.2,47.8,30.43,NNW,328,6.9,6.9,66,0.00,OVC,,0.00,343.0,WeatherDisplay:10.37,2013-06-26 10:11:00,
2013-06-26 11:16:00,59.5,47.7,30.43,North,352,10.4,10.4,65,0.00,SCT,,0.00,424.0,WeatherDisplay:10.37,2013-06-26 10:16:00,
2013-06-26 11:21:00,59.6,47.8,30.43,South,169,9.2,9.2,65,0.00,OVC,,0.00,297.0,WeatherDisplay:10.37,2013-06-26 10:21:00,
2013-06-26 11:27:00,59.3,47.5,30.44,North,352,10.0,10.0,65,0.00,OVC,,0.00,304.0,WeatherDisplay:10.37,2013-06-26 10:27:00,
2013-06-26 11:32:00,59.5,47.3,30.44,North,350,4.6,4.6,64,0.00,BKN,,0.00,359.0,WeatherDisplay:10.37,2013-06-26 10:32:00,
2013-06-26 11:37:00,59.3,47.5,30.44,North,352,9.2,9.2,65,0.00,OVC,,0.00,290.0,WeatherDisplay:10.37,2013-06-26 10:37:00,
2013-06-26 11:42:00,59.2,47.4,30.44,NNW,347,11.5,11.5,65,0.00,OVC,,0.00,338.0,WeatherDisplay:10.37,2013-06-26 10:42:00,
2013-06-26 11:47:00,59.5,48.5,30.44,NNW,347,11.5,11.5,67,0.00,BKN,,0.00,375.0,WeatherDisplay:10.37,2013-06-26 10:47:00,
2013-06-26 11:52:00,59.8,47.6,30.44,NNW,340,11.5,11.5,64,0.00,OVC,,0.00,334.0,WeatherDisplay:10.37,2013-06-26 10:52:00,
2013-06-26 11:57:00,59.2,47.4,30.44,NNW,337,12.7,12.7,65,0.00,OVC,,0.00,294.0,WeatherDisplay:10.37,2013-06-26 10:57:00,
2013-06-26 12:02:00,59.3,47.9,30.44,NNW,342,11.5,11.5,66,0.00,BKN,,0.00,350.0,WeatherDisplay:10.37,2013-06-26 11:02:00,
2013-06-26 12:07:00,59.3,47.5,30.44,NNW,340,5.8,5.8,65,0.00,OVC,,0.00,331.0,WeatherDisplay:10.37,2013-06-26 11:07:00,
2013-06-26 12:12:00,59.8,48.0,30.44,North,356,11.5,11.5,65,0.00,FEW,,0.00,813.0,WeatherDisplay:10.37,2013-06-26 11:12:00,
2013-06-26 12:17:00,60.4,47.7,30.44,NW,308,6.9,6.9,63,0.00,FEW,,0.00,867.0,WeatherDisplay:10.37,2013-06-26 11:17:00,
2013-06-26 12:22:00,60.5,48.3,30.43,NNW,336,5.8,5.8,64,0.00,BKN,,0.00,454.0,WeatherDisplay:10.37,2013-06-26 11:22:00,
2013-06-26 12:25:00,60.4,48.2,30.43,NNW,329,8.1,8.1,64,0.00,BKN,,0.00,454.0,WeatherDisplay:10.37,2013-06-26 11:25:00,
2013-06-26 12:30:00,61.5,49.2,30.44,NNW,342,6.9,6.9,64,0.00,BKN,,0.00,454.0,WeatherDisplay:10.37,2013-06-26 11:30:00,
2013-06-26 12:35:00,61.0,48.7,30.44,NNW,333,9.2,9.2,64,0.00,BKN,,0.00,428.0,WeatherDisplay:10.37,2013-06-26 11:35:00,
2013-06-26 12:41:00,60.4,49.0,30.44,NW,318,10.4,10.4,66,0.00,BKN,,0.00,370.0,WeatherDisplay:10.37,2013-06-26 11:41:00,
2013-06-26 12:46:00,60.5,48.7,30.44,NNW,335,8.1,8.1,65,0.00,BKN,,0.00,370.0,WeatherDisplay:10.37,2013-06-26 11:46:00,
2013-06-26 12:51:00,60.9,48.2,30.44,NNW,333,11.0,11.0,63,0.00,OVC,,0.00,280.0,WeatherDisplay:10.37,2013-06-26 11:51:00,
2013-06-26 12:56:00,60.2,48.0,30.44,NNW,333,5.8,5.8,64,0.00,OVC,,0.00,318.0,WeatherDisplay:10.37,2013-06-26 11:56:00,
2013-06-26 13:01:00,60.7,47.6,30.44,NNW,332,8.1,8.1,62,0.00,OVC,,0.00,361.0,WeatherDisplay:10.37,2013-06-26 12:01:00,
2013-06-26 13:07:00,61.2,47.6,30.43,NNW,344,11.5,11.5,61,0.00,BKN,,0.00,385.0,WeatherDisplay:10.37,2013-06-26 12:07:00,
2013-06-26 13:12:00,60.9,48.2,30.43,NNW,339,9.2,9.2,63,0.00,BKN,,0.00,920.0,WeatherDisplay:10.37,2013-06-26 12:12:00,
2013-06-26 13:17:00,61.0,48.3,30.43,North,359,11.5,11.5,63,0.00,CLR,,0.00,917.0,WeatherDisplay:10.37,2013-06-26 12:17:00,
2013-06-26 13:22:00,61.5,48.4,30.43,NNW,346,11.5,11.5,62,0.00,CLR,,0.00,961.0,WeatherDisplay:10.37,2013-06-26 12:22:00,
2013-06-26 13:27:00,62.0,48.0,30.44,NNW,339,11.5,11.5,60,0.00,CLR,,0.00,961.0,WeatherDisplay:10.37,2013-06-26 12:27:00,
2013-06-26 13:32:00,62.6,48.1,30.43,NNW,335,10.4,10.4,59,0.00,FEW,,0.00,882.0,WeatherDisplay:10.37,2013-06-26 12:32:00,
2013-06-26 13:38:00,62.7,48.2,30.43,North,350,10.4,10.4,59,0.00,FEW,,0.00,866.0,WeatherDisplay:10.37,2013-06-26 12:38:00,
2013-06-26 13:43:00,63.2,48.6,30.43,NNW,328,5.8,7.2,59,0.00,FEW,,0.00,867.0,WeatherDisplay:10.37,2013-06-26 12:43:00,
2013-06-26 13:48:00,63.1,47.6,30.43,NNW,336,13.8,13.8,57,0.00,FEW,,0.00,896.0,WeatherDisplay:10.37,2013-06-26 12:48:00,
2013-06-26 13:53:00,63.1,49.0,30.43,NW,325,11.5,11.5,60,0.00,CLR,,0.00,947.0,WeatherDisplay:10.37,2013-06-26 12:53:00,
2013-06-26 13:58:00,62.6,48.1,30.43,North,359,8.1,8.1,59,0.00,CLR,,0.00,903.0,WeatherDisplay:10.37,2013-06-26 12:58:00,
2013-06-26 14:03:00,63.1,48.5,30.43,NW,320,10.4,10.4,59,0.00,CLR,,0.00,954.0,WeatherDisplay:10.37,2013-06-26 13:03:00,
2013-06-26 14:09:00,63.7,49.1,30.43,NNW,330,11.5,11.5,59,0.00,CLR,,0.00,1059.0,WeatherDisplay:10.37,2013-06-26 13:09:00,
2013-06-26 14:14:00,64.3,49.2,30.43,NNW,337,8.0,8.0,58,0.00,CLR,,0.00,975.0,WeatherDisplay:10.37,2013-06-26 13:14:00,
2013-06-26 14:19:00,63.2,50.0,30.43,NNW,343,8.1,8.1,62,0.00,OVC,,0.00,278.0,WeatherDisplay:10.37,2013-06-26 13:19:00,
2013-06-26 14:24:00,62.7,49.9,30.42,NNW,347,9.2,9.2,63,0.00,CLR,,0.00,889.0,WeatherDisplay:10.37,2013-06-26 13:24:00,
2013-06-26 14:29:00,63.5,49.4,30.42,NNW,330,5.8,5.8,60,0.00,CLR,,0.00,901.0,WeatherDisplay:10.37,2013-06-26 13:29:00,
2013-06-26 14:34:00,63.7,50.0,30.43,SSW,212,7.0,7.0,61,0.00,CLR,,0.00,985.0,WeatherDisplay:10.37,2013-06-26 13:34:00,
2013-06-26 14:39:00,64.2,50.5,30.43,North,354,6.9,6.9,61,0.00,CLR,,0.00,977.0,WeatherDisplay:10.37,2013-06-26 13:39:00,
2013-06-26 14:45:00,64.2,50.9,30.43,NNW,347,10.4,10.4,62,0.00,CLR,,0.00,954.0,WeatherDisplay:10.37,2013-06-26 13:45:00,
2013-06-26 14:50:00,64.3,49.7,30.43,NW,326,6.9,6.9,59,0.00,CLR,,0.00,873.0,WeatherDisplay:10.37,2013-06-26 13:50:00,
2013-06-26 14:55:00,64.0,49.8,30.43,NNW,330,11.5,11.5,60,0.00,CLR,,0.00,913.0,WeatherDisplay:10.37,2013-06-26 13:55:00,
2013-06-26 15:00:00,63.2,49.5,30.43,NNW,343,12.7,12.7,61,0.00,CLR,,0.00,890.0,WeatherDisplay:10.37,2013-06-26 14:00:00,
2013-06-26 15:06:00,63.4,49.3,30.43,NW,326,6.9,6.9,60,0.00,CLR,,0.00,890.0,WeatherDisplay:10.37,2013-06-26 14:06:00,
2013-06-26 15:11:00,63.1,49.4,30.44,NNW,333,6.9,6.9,61,0.00,CLR,,0.00,301.0,WeatherDisplay:10.37,2013-06-26 14:11:00,
2013-06-26 15:16:00,62.4,49.6,30.44,NNW,344,11.5,11.5,63,0.00,BKN,,0.00,334.0,WeatherDisplay:10.37,2013-06-26 14:16:00,
2013-06-26 15:21:00,61.6,49.7,30.44,South,169,5.8,5.8,65,0.00,BKN,,0.00,333.0,WeatherDisplay:10.37,2013-06-26 14:21:00,
2013-06-26 15:26:00,61.5,49.6,30.44,North,352,8.1,8.1,65,0.00,BKN,,0.00,333.0,WeatherDisplay:10.37,2013-06-26 14:26:00,
2013-06-26 15:31:00,61.8,49.1,30.43,NW,325,7.0,7.0,63,0.00,CLR,,0.00,818.0,WeatherDisplay:10.37,2013-06-26 14:31:00,
2013-06-26 15:36:00,62.3,49.5,30.43,NNW,339,10.4,10.4,63,0.00,CLR,,0.00,787.0,WeatherDisplay:10.37,2013-06-26 14:36:00,
2013-06-26 15:41:00,62.1,49.4,30.44,NNW,333,8.1,8.1,63,0.00,FEW,,0.00,280.0,WeatherDisplay:10.37,2013-06-26 14:41:00,
2013-06-26 15:46:00,61.6,48.9,30.43,SW,223,11.5,11.5,63,0.00,OVC,,0.00,250.0,WeatherDisplay:10.37,2013-06-26 14:46:00,
2013-06-26 15:52:00,62.6,50.7,30.43,NNW,339,6.9,6.9,65,0.00,CLR,,0.00,482.0,WeatherDisplay:10.37,2013-06-26 14:52:00,
2013-06-26 15:57:00,62.4,49.2,30.44,NW,326,11.5,11.5,62,0.00,OVC,,0.00,280.0,WeatherDisplay:10.37,2013-06-26 14:57:00,
2013-06-26 16:02:00,61.8,49.5,30.43,NW,323,10.4,10.4,64,0.00,BKN,,0.00,336.0,WeatherDisplay:10.37,2013-06-26 15:02:00,
2013-06-26 16:07:00,63.4,50.6,30.43,NW,323,6.9,6.9,63,0.00,CLR,,0.00,776.0,WeatherDisplay:10.37,2013-06-26 15:07:00,
2013-06-26 16:12:00,63.1,49.9,30.43,NNW,344,10.4,10.4,62,0.00,BKN,,0.00,735.0,WeatherDisplay:10.37,2013-06-26 15:12:00,
2013-06-26 16:17:00,63.4,50.6,30.43,NNW,333,6.9,6.9,63,0.00,CLR,,0.00,741.0,WeatherDisplay:10.37,2013-06-26 15:17:00,
2013-06-26 16:22:00,63.9,49.7,30.43,NNW,333,11.5,11.5,60,0.00,CLR,,0.00,695.0,WeatherDisplay:10.37,2013-06-26 15:22:00,
2013-06-26 16:28:00,63.5,50.7,30.43,NNW,340,8.1,8.1,63,0.00,CLR,,0.00,681.0,WeatherDisplay:10.37,2013-06-26 15:28:00,
2013-06-26 16:33:00,62.9,49.7,30.43,NNW,330,11.5,11.5,62,0.00,CLR,,0.00,674.0,WeatherDisplay:10.37,2013-06-26 15:33:00,
2013-06-26 16:38:00,63.2,50.4,30.43,NW,320,10.0,10.0,63,0.00,CLR,,0.00,672.0,WeatherDisplay:10.37,2013-06-26 15:38:00,
2013-06-26 16:43:00,63.2,49.1,30.43,SW,223,5.8,5.8,60,0.00,FEW,,0.00,614.0,WeatherDisplay:10.37,2013-06-26 15:43:00,
2013-06-26 16:48:00,63.2,50.0,30.43,NNW,336,11.5,11.5,62,0.00,CLR,,0.00,630.0,WeatherDisplay:10.37,2013-06-26 15:48:00,
2013-06-26 16:54:00,63.5,49.8,30.43,NNW,330,11.5,11.5,61,0.00,FEW,,0.00,598.0,WeatherDisplay:10.37,2013-06-26 15:54:00,
2013-06-26 16:59:00,63.4,49.3,30.43,NNW,346,10.4,10.4,60,0.00,FEW,,0.00,589.0,WeatherDisplay:10.37,2013-06-26 15:59:00,
2013-06-26 17:04:00,62.9,49.7,30.43,North,349,8.1,8.1,62,0.00,CLR,,0.00,591.0,WeatherDisplay:10.37,2013-06-26 16:04:00,
2013-06-26 17:09:00,62.9,49.7,30.43,NNW,337,9.2,9.2,62,0.00,CLR,,0.00,568.0,WeatherDisplay:10.37,2013-06-26 16:09:00,
2013-06-26 17:14:00,62.9,49.2,30.42,NNW,333,9.2,9.2,61,0.00,FEW,,0.00,545.0,WeatherDisplay:10.37,2013-06-26 16:14:00,
2013-06-26 17:20:00,63.1,49.4,30.42,NNW,330,6.9,6.9,61,0.00,FEW,,0.00,538.0,WeatherDisplay:10.37,2013-06-26 16:20:00,
2013-06-26 17:25:00,63.4,49.7,30.43,NNW,342,10.4,10.4,61,0.00,FEW,,0.00,526.0,WeatherDisplay:10.37,2013-06-26 16:25:00,
2013-06-26 17:30:00,62.9,49.2,30.43,North,356,5.8,5.8,61,0.00,FEW,,0.00,501.0,WeatherDisplay:10.37,2013-06-26 16:30:00,
2013-06-26 17:35:00,63.1,49.9,30.43,North,356,5.8,5.9,62,0.00,FEW,,0.00,494.0,WeatherDisplay:10.37,2013-06-26 16:35:00,
2013-06-26 17:41:00,62.7,49.5,30.42,NNW,337,5.8,5.8,62,0.00,FEW,,0.00,477.0,WeatherDisplay:10.37,2013-06-26 16:41:00,
2013-06-26 17:46:00,62.7,49.5,30.42,NNW,335,6.9,6.9,62,0.00,FEW,,0.00,456.0,WeatherDisplay:10.37,2013-06-26 16:46:00,
2013-06-26 17:51:00,62.9,49.2,30.42,NNW,330,11.5,11.5,61,0.00,FEW,,0.00,428.0,WeatherDisplay:10.37,2013-06-26 16:51:00,
2013-06-26 17:56:00,62.7,49.5,30.42,NNW,336,10.4,10.4,62,0.00,FEW,,0.00,428.0,WeatherDisplay:10.37,2013-06-26 16:56:00,
2013-06-26 18:01:00,62.4,49.2,30.42,NNW,332,8.1,8.1,62,0.00,FEW,,0.00,410.0,WeatherDisplay:10.37,2013-06-26 17:01:00,
2013-06-26 18:06:00,62.1,49.4,30.42,NNW,342,6.9,6.9,63,0.00,FEW,,0.00,398.0,WeatherDisplay:10.37,2013-06-26 17:06:00,
2013-06-26 18:11:00,62.3,50.0,30.42,NW,326,5.8,5.8,64,0.00,FEW,,0.00,378.0,WeatherDisplay:10.37,2013-06-26 17:11:00,
2013-06-26 18:16:00,61.8,48.6,30.42,NNW,347,8.1,8.1,62,0.00,FEW,,0.00,361.0,WeatherDisplay:10.37,2013-06-26 17:16:00,
2013-06-26 18:22:00,62.0,49.3,30.41,NNW,332,6.9,6.9,63,0.00,FEW,,0.00,359.0,WeatherDisplay:10.37,2013-06-26 17:22:00,
2013-06-26 18:27:00,62.1,49.4,30.41,NNW,329,8.1,8.1,63,0.00,FEW,,0.00,343.0,WeatherDisplay:10.37,2013-06-26 17:27:00,
2013-06-26 18:32:00,61.6,49.3,30.41,NNW,344,3.5,3.5,64,0.00,FEW,,0.00,357.0,WeatherDisplay:10.37,2013-06-26 17:32:00,
2013-06-26 18:37:00,61.6,48.9,30.41,NNW,337,11.5,11.5,63,0.00,FEW,,0.00,340.0,WeatherDisplay:10.37,2013-06-26 17:37:00,
2013-06-26 18:42:00,61.5,49.6,30.41,NNW,342,3.5,3.5,65,0.00,FEW,,0.00,320.0,WeatherDisplay:10.37,2013-06-26 17:42:00,
2013-06-26 18:48:00,61.2,48.9,30.41,NNW,335,6.9,6.9,64,0.00,FEW,,0.00,306.0,WeatherDisplay:10.37,2013-06-26 17:48:00,
2013-06-26 18:53:00,61.0,48.7,30.42,NNW,330,10.4,10.4,64,0.00,FEW,,0.00,294.0,WeatherDisplay:10.37,2013-06-26 17:53:00,
2013-06-26 18:58:00,60.7,48.9,30.42,NNW,340,5.8,5.8,65,0.00,FEW,,0.00,283.0,WeatherDisplay:10.37,2013-06-26 17:58:00,
2013-06-26 19:03:00,60.5,48.7,30.42,NNW,340,6.9,6.9,65,0.00,FEW,,0.00,273.0,WeatherDisplay:10.37,2013-06-26 18:03:00,
2013-06-26 19:08:00,60.5,48.7,30.42,North,349,2.3,3.0,65,0.00,FEW,,0.00,262.0,WeatherDisplay:10.37,2013-06-26 18:08:00,
2013-06-26 19:13:00,60.2,48.4,30.42,NNW,335,11.5,11.5,65,0.00,FEW,,0.00,248.0,WeatherDisplay:10.37,2013-06-26 18:13:00,
2013-06-26 19:19:00,60.5,48.7,30.42,NNW,333,7.0,7.0,65,0.00,FEW,,0.00,238.0,WeatherDisplay:10.37,2013-06-26 18:19:00,
2013-06-26 19:24:00,60.2,48.4,30.42,NNW,333,6.9,6.9,65,0.00,FEW,,0.00,232.0,WeatherDisplay:10.37,2013-06-26 18:24:00,
2013-06-26 19:29:00,60.1,48.3,30.42,NW,308,11.5,11.5,65,0.00,FEW,,0.00,222.0,WeatherDisplay:10.37,2013-06-26 18:29:00,
2013-06-26 19:34:00,59.9,48.5,30.42,NW,322,10.4,10.4,66,0.00,FEW,,0.00,209.0,WeatherDisplay:10.37,2013-06-26 18:34:00,
2013-06-26 19:39:00,59.6,48.2,30.42,NNW,330,3.5,3.5,66,0.00,FEW,,0.00,197.0,WeatherDisplay:10.37,2013-06-26 18:39:00,
2013-06-26 19:44:00,59.2,47.8,30.41,North,352,6.9,6.9,66,0.00,FEW,,0.00,192.0,WeatherDisplay:10.37,2013-06-26 18:44:00,
2013-06-26 19:49:00,58.9,48.0,30.42,NNW,330,11.5,11.5,67,0.00,FEW,,0.00,178.0,WeatherDisplay:10.37,2013-06-26 18:49:00,
2013-06-26 19:55:00,58.7,47.8,30.42,WSW,239,5.8,5.8,67,0.00,FEW,,0.00,172.0,WeatherDisplay:10.37,2013-06-26 18:55:00,
2013-06-26 20:00:00,58.7,48.2,30.42,NNW,335,5.8,5.8,68,0.00,CLR,,0.00,174.0,WeatherDisplay:10.37,2013-06-26 19:00:00,
2013-06-26 20:05:00,58.9,48.4,30.42,NNW,343,5.8,5.8,68,0.00,CLR,,0.00,172.0,WeatherDisplay:10.37,2013-06-26 19:05:00,
2013-06-26 20:10:00,58.9,48.0,30.41,NW,323,10.4,10.4,67,0.00,CLR,,0.00,181.0,WeatherDisplay:10.37,2013-06-26 19:10:00,
2013-06-26 20:15:00,58.4,47.9,30.41,NNW,333,6.9,6.9,68,0.00,CLR,,0.00,164.0,WeatherDisplay:10.37,2013-06-26 19:15:00,
2013-06-26 20:20:00,58.3,47.8,30.41,NNW,330,4.6,4.6,68,0.00,CLR,,0.00,150.0,WeatherDisplay:10.37,2013-06-26 19:20:00,
2013-06-26 20:25:00,58.3,48.2,30.41,NNW,335,4.6,4.6,69,0.00,CLR,,0.00,143.0,WeatherDisplay:10.37,2013-06-26 19:25:00,
2013-06-26 20:31:00,58.0,47.9,30.41,North,349,6.9,6.9,69,0.00,CLR,,0.00,134.0,WeatherDisplay:10.37,2013-06-26 19:31:00,
2013-06-26 20:36:00,57.8,47.7,30.41,North,356,6.0,6.0,69,0.00,CLR,,0.00,113.0,WeatherDisplay:10.37,2013-06-26 19:36:00,
2013-06-26 20:41:00,57.5,47.8,30.41,NW,320,5.8,5.8,70,0.00,FEW,,0.00,95.0,WeatherDisplay:10.37,2013-06-26 19:41:00,
2013-06-26 20:46:00,57.2,47.9,30.42,NNW,329,2.3,0.0,71,0.00,FEW,,0.00,86.0,WeatherDisplay:10.37,2013-06-26 19:46:00,
2013-06-26 20:51:00,56.9,47.6,30.42,NNW,342,3.5,3.5,71,0.00,FEW,,0.00,76.0,WeatherDisplay:10.37,2013-06-26 19:51:00,
2013-06-26 20:56:00,56.7,47.4,30.42,NNW,346,3.5,3.5,71,0.00,SCT,,0.00,62.0,WeatherDisplay:10.37,2013-06-26 19:56:00,
2013-06-26 21:01:00,56.5,47.6,30.42,NNW,330,2.3,2.3,72,0.00,SCT,,0.00,56.0,WeatherDisplay:10.37,2013-06-26 20:01:00,
2013-06-26 21:06:00,56.2,47.3,30.42,NW,316,2.3,2.3,72,0.00,SCT,,0.00,46.0,WeatherDisplay:10.37,2013-06-26 20:06:00,
2013-06-26 21:12:00,55.9,47.4,30.42,North,357,4.6,4.6,73,0.00,BKN,,0.00,33.0,WeatherDisplay:10.37,2013-06-26 20:12:00,
2013-06-26 21:17:00,55.6,47.4,30.42,NNW,330,3.5,3.5,74,0.00,SCT,,0.00,30.0,WeatherDisplay:10.37,2013-06-26 20:17:00,
2013-06-26 21:22:00,55.1,47.0,30.42,NNW,329,2.3,2.3,74,0.00,SCT,,0.00,23.0,WeatherDisplay:10.37,2013-06-26 20:22:00,
2013-06-26 21:27:00,54.8,46.7,30.42,NNW,339,3.5,3.5,74,0.00,BKN,,0.00,21.0,WeatherDisplay:10.37,2013-06-26 20:27:00,
2013-06-26 21:32:00,54.7,46.6,30.42,NNW,330,4.6,4.6,74,0.00,SCT,,0.00,19.0,WeatherDisplay:10.37,2013-06-26 20:32:00,
2013-06-26 21:37:00,54.4,46.6,30.42,NNW,347,2.3,2.3,75,0.00,SCT,,0.00,16.0,WeatherDisplay:10.37,2013-06-26 20:37:00,
2013-06-26 21:42:00,54.2,46.4,30.42,WSW,257,3.5,3.5,75,0.00,SCT,,0.00,12.0,WeatherDisplay:10.37,2013-06-26 20:42:00,
2013-06-26 21:47:00,53.9,46.2,30.42,NW,308,4.6,4.6,75,0.00,FEW,,0.00,9.0,WeatherDisplay:10.37,2013-06-26 20:47:00,
2013-06-26 21:53:00,53.8,46.4,30.42,NNW,337,2.3,2.3,76,0.00,CLR,,0.00,9.0,WeatherDisplay:10.37,2013-06-26 20:53:00,
2013-06-26 21:58:00,53.5,46.1,30.43,NW,319,4.6,4.6,76,0.00,OVC,,0.00,7.0,WeatherDisplay:10.37,2013-06-26 20:58:00,
2013-06-26 22:03:00,53.3,45.9,30.43,NW,319,0.0,0.0,76,0.00,OVC,,0.00,7.0,WeatherDisplay:10.37,2013-06-26 21:03:00,
2013-06-26 22:08:00,53.1,46.1,30.43,NW,325,3.0,3.0,77,0.00,OVC,,0.00,5.0,WeatherDisplay:10.37,2013-06-26 21:08:00,
2013-06-26 22:13:00,52.8,45.8,30.43,SW,233,5.8,5.8,77,0.00,OVC,,0.00,5.0,WeatherDisplay:10.37,2013-06-26 21:13:00,
2013-06-26 22:18:00,52.6,45.6,30.42,SW,229,2.3,2.3,77,0.00,OVC,,0.00,0.0,WeatherDisplay:10.37,2013-06-26 21:18:00,
2013-06-26 22:23:00,52.3,45.3,30.42,NW,322,3.5,3.5,77,0.00,OVC,,0.00,0.0,WeatherDisplay:10.37,2013-06-26 21:23:00,
2013-06-26 22:29:00,52.2,45.2,30.42,NW,322,0.0,0.0,77,0.00,OVC,,0.00,0.0,WeatherDisplay:10.37,2013-06-26 21:29:00,
2013-06-26 22:34:00,52.0,45.4,30.43,NNW,337,3.5,3.5,78,0.00,OVC,,0.00,0.0,WeatherDisplay:10.37,2013-06-26 21:34:00,
2013-06-26 22:39:00,52.0,45.4,30.42,NW,308,2.3,2.3,78,0.00,CLR,,0.00,0.0,WeatherDisplay:10.37,2013-06-26 21:39:00,
2013-06-26 22:44:00,51.9,45.3,30.42,SW,233,2.0,0.0,78,0.00,CLR,,0.00,0.0,WeatherDisplay:10.37,2013-06-26 21:44:00,
2013-06-26 22:50:00,51.9,45.3,30.42,NW,319,1.2,0.0,78,0.00,CLR,,0.00,0.0,WeatherDisplay:10.37,2013-06-26 21:50:00,
2013-06-26 22:55:00,52.0,45.4,30.42,NW,308,1.2,1.2,78,0.00,CLR,,0.00,0.0,WeatherDisplay:10.37,2013-06-26 21:55:00,
2013-06-26 23:00:00,52.0,45.4,30.42,NW,316,2.3,2.3,78,0.00,CLR,,0.00,0.0,WeatherDisplay:10.37,2013-06-26 22:00:00,
2013-06-26 23:05:00,52.0,45.4,30.42,NNW,347,8.0,8.0,78,0.00,CLR,,0.00,0.0,WeatherDisplay:10.37,2013-06-26 22:05:00,
2013-06-26 23:10:00,52.0,45.4,30.43,WNW,298,5.8,5.8,78,0.00,CLR,,0.00,0.0,WeatherDisplay:10.37,2013-06-26 22:10:00,
2013-06-26 23:15:00,52.0,45.4,30.43,NNW,329,5.8,5.8,78,0.00,CLR,,0.00,0.0,WeatherDisplay:10.37,2013-06-26 22:15:00,
2013-06-26 23:21:00,51.9,45.3,30.42,NW,326,3.5,3.5,78,0.00,CLR,,0.00,0.0,WeatherDisplay:10.37,2013-06-26 22:21:00,
2013-06-26 23:26:00,51.9,45.3,30.42,NW,325,5.0,5.0,78,0.00,CLR,,0.00,0.0,WeatherDisplay:10.37,2013-06-26 22:26:00,
2013-06-26 23:31:00,51.9,45.3,30.42,NW,318,2.3,2.3,78,0.00,CLR,,0.00,0.0,WeatherDisplay:10.37,2013-06-26 22:31:00,
2013-06-26 23:36:00,51.7,45.4,30.42,NW,326,6.9,6.9,79,0.00,CLR,,0.00,0.0,WeatherDisplay:10.37,2013-06-26 22:36:00,
2013-06-26 23:41:00,51.7,45.4,30.42,North,357,4.0,4.0,79,0.00,CLR,,0.00,0.0,WeatherDisplay:10.37,2013-06-26 22:41:00,
2013-06-26 23:46:00,51.7,45.4,30.42,WSW,239,2.3,2.3,79,0.00,CLR,,0.00,0.0,WeatherDisplay:10.37,2013-06-26 22:46:00,
2013-06-26 23:51:00,51.7,45.4,30.42,North,357,1.2,1.2,79,0.00,CLR,,0.00,0.0,WeatherDisplay:10.37,2013-06-26 22:51:00,
2013-06-26 23:56:00,51.6,45.3,30.42,North,357,0.0,0.0,79,0.00,CLR,,0.00,0.0,WeatherDisplay:10.37,2013-06-26 22:56:00,